Back to provider search

HCPCS Code detail

92285

Photography of content of eyes

Latest data year CY2023

Ranking basis

Providers are ordered to identify the highest Medicare FFS volume for this code. Higher volume is a utilization signal only and is not presented as a quality, outcomes, or appropriateness measure.

Providers billing code2,268Distinct nationwide ophthalmology providers in Medicare FFS
Services for code263,097Total selected-code Medicare FFS services
Beneficiaries220,454Beneficiaries tied to selected-code rows
Average allowedBy providerDisplayed per row from Medicare allowed amount

Code-specific provider rankings

Filter by state or city, then sort providers by selected-code utilization, beneficiaries, average allowed amount, or overall Medicare FFS footprint.

National code rankState code rankProviderNPIMarketServicesBeneficiariesAverage Medicare allowedPlace of serviceProvider total services
#1,801Filter by stateLara T Dudek1740461136Dripping Springs, TX1914$19.84O1,914
#1,802Filter by stateTracy B Ravin1801846027Melbourne, FL1916$20.45O3,036
#1,803Filter by stateSarah M Nehls1841266368Madison, WI1915$3.73O1,472
#1,804Filter by stateMichael Nejat1871576025Staten Island, NY1919$28.36O12,151
#1,805Filter by stateLarry M Perich1891724019New Port Richey, FL1915$21.47O2,715
#1,806Filter by stateAlan G Palestine1992702708Aurora, CO1912$3.04F829
#1,807Filter by stateDavid Y Badawi1033133996Arlington Heights, IL1816$23.00O4,582
#1,808Filter by stateChristina Gillmor1093160491West Des Moines, IA1815$20.05O2,453
#1,809Filter by stateLai Jiang1093193625Temple, TX1815$2.87F954
#1,810Filter by stateKyle J Godfrey1104268994New York, NY1818$27.97O1,846
#1,811Filter by stateMark C Remington1174539266Kalispell, MT1816$22.81O9,828
#1,812Filter by stateEvan Wolf1205801586Wasilla, AK1818$25.69O2,434
#1,813Filter by stateCharlotte M Agnone1255446894Marysville, OH1816$17.83O3,539
#1,814Filter by stateAllison R Jarstad1265729081Medford, OR1813$22.44O3,174
#1,815Filter by stateAnuradha Paturi1275733701Phoenix, AZ1817$20.91O2,133
#1,816Filter by stateVictor M Bello1326029554Willoughby Hills, OH1818$20.34O1,658
#1,817Filter by stateGary B Weiner1336143213Salina, KS1818$20.80O5,793
#1,818Filter by stateCorina Stancey1366445165Lakeway, TX1818$22.77O2,849
#1,819Filter by stateKyle Huynh1366861031Camarillo, CA1814$27.08O3,099
#1,820Filter by stateLinda R Dagi1376631432Boston, MA1818$3.08F406
#1,821Filter by stateRichard Carlin1396743498Snellville, GA1817$21.81O1,735
#1,822Filter by stateGolnaz Moazami1427075407New York, NY1817$24.82O8,662
#1,823Filter by stateJon Kintner1437150265North Bend, OR1818$20.04O4,451
#1,824Filter by stateMark N Berkowitz1447232459Sterling Heights, MI1817$23.72O2,120
#1,825Filter by stateJonathan D Solomon1497744205Greenbelt, MD1817$27.71O3,540

Full code-specific utilization ranking

Request the full provider utilization export, named peer comparison, and code-specific market scan for this CPT/HCPCS code.

Request full code benchmark